Location: Dąbrówka
(52.2799°N, 15.8070°E)
Time: 03:48:50
(UTC+02:00)

Envisat - Visible Passes

Search period start: 18 October 2019 00:00
Search period end: 27 October 2019 23:00
Orbit: 764 x 766 km, 98.1° (Epoch: 17 October)

Date Brightness Start Highest point End Pass type
(mag) Time Alt. Az. Time Alt. Az. Time Alt. Az.
18 Oct 3.5 19:07:12 10° S 19:12:14 64° WSW 19:17:19 10° NNW visible
18 Oct 6.3 20:51:18 10° W 20:52:18 11° W 20:53:19 10° WNW visible
19 Oct 3.0 18:30:25 10° SSE 18:35:27 68° ENE 18:40:32 10° N visible
19 Oct 5.6 20:11:10 10° SW 20:14:58 21° W 20:18:49 10° NW visible
20 Oct 6.2 06:34:40 10° NE 06:37:42 16° E 06:40:43 10° ESE visible
20 Oct 4.4 19:33:05 10° SSW 19:37:52 40° W 19:42:40 10° NNW visible
21 Oct 3.2 18:55:52 10° S 19:00:57 78° WSW 19:06:05 10° NNW visible
21 Oct 6.1 20:38:28 10° WSW 20:40:51 13° W 20:43:14 10° NW visible
22 Oct 3.1 18:19:16 10° SE 18:24:13 56° ENE 18:29:13 10° N visible
22 Oct 5.3 19:59:24 10° SSW 20:03:35 26° W 20:07:49 10° NW visible
23 Oct 6.4 06:24:02 10° ENE 06:26:16 13° E 06:28:29 10° ESE visible
23 Oct 4.0 19:21:37 10° S 19:26:32 49° W 19:31:29 10° NNW visible
24 Oct 3.0 18:44:35 10° SSE 18:49:41 87° ENE 18:54:48 10° NNW visible
24 Oct 5.9 20:26:18 10° SW 20:29:25 16° W 20:32:34 10° NW visible
25 Oct 6.0 06:48:22 10° NE 06:52:09 21° E 06:55:54 10° SE visible
25 Oct 3.3 18:08:10 10° SE 18:13:00 46° ENE 18:17:52 10° N visible
25 Oct 4.9 19:47:44 10° SSW 19:52:13 31° W 19:56:44 10° NNW visible
26 Oct 6.7 06:14:21 10° ENE 06:14:49 10° E 06:15:16 10° E visible
26 Oct 3.6 19:10:13 10° S 19:15:14 59° W 19:20:17 10° NNW visible
27 Oct 2.9 17:33:21 10° SSE 17:38:25 73° ENE 17:43:31 10° NNW visible
27 Oct 5.6 19:14:21 10° SW 19:18:00 20° W 19:21:41 10° NW visible
